Vertical_Velocity
-2 -0 -3 -3 -1 -5 -2 4 -1 5 4 10 8 -3 2 -3 6 4 1 1 0 -1 -3 1 3 5 -1
-3 -3 -4 -6 -4 -4 0 -1 2 -2 -5 -7 1 0 -2 -1 -1 2 -0 -0 -5 -2 2 0 -4 -5 -2
-0 -1 -2 -4 -4 -5 -3 -1 2 1 1 -1 1 0 -0 6 3 -3 -0 -3 -3 2 3 2 -0 -1 -2
-3 -2 -2 -3 -3 -1 -1 -2 -1 -0 3 3 -1 2 1 3 1 0 -3 -0 -1 -0 2 -1 0 1 1
-1 -3 -4 1 2 3 1 -0 0 -0 -1 -4 -1 -4 4 4 3 0 2 -0 -3 -3 -0 -1 -1 -3 -2
-0 -2 -1 -3 -3 -2 0 2 2 -1 -0 0 1 -2 -3 -2 -0 -0 -4 -3 1 1 -3 -2 -0 -2 -1
-1 -3 -0 -0 -0 -2 -2 -2 -4 1 3 -7 7 -3 -3 -1 -1 -4 -4 -3 -2 -1 0 -2 -3 -5 -5
-0 -2 -1 -0 -2 -0 -1 -1 -1 1 -2 2 1 0 -0 -1 -4 -1 1 2 1 -0 -2 -5 -6 -3 -2
-3 -1 -2 -2 -3 -1 -2 -2 -3 -1 0 2 3 -1 3 2 1 2 1 0 -0 -2 -2 -3 -3 1 -0
2 0 0 2 2 -2 -3 -3 -2 -0 -2 -1 -1 2 1 -1 -2 -1 -3 -1 1 2 1 -0 0 3 -1
-1 -0 0 -1 -0 -0 -0 -1 -2 -2 3 3 -3 -4 0 3 1 -2 -1 -2 3 3 1 4 4 2 2
-1 -1 -2 -2 -1 -2 -2 -1 -3 -2 -4 -1 2 -5 -2 -3 10 -10 -2 -1 -1 -0 2 3 4 1 3
-2 -2 -3 -3 -3 -2 -3 -1 -4 -4 -3 -3 1 2 1 -1 8 -0 0 -12 -2 3 4 5 3 6 6
-1 -1 -1 -2 -2 0 -2 -1 -1 -6 1 -1 -2 -1 1 -2 4 7 -7 4 -3 -8 -3 1 1 2 2
-1 -0 -1 0 -1 -1 -1 -1 1 -2 -9 -9 0 3 2 3 5 -3 6 2 -7 -3 -4 2 -0 1 -3
-1 -1 -1 -1 -0 -2 -1 0 3 -0 -0 -6 -7 -3 2 7 -3 10 2 2 -3 1 1 -1 9 -6 -2
-0 1 -0 1 1 -2 -1 0 -1 4 -1 -2 -2 -1 1 1 16 -22 2 -4 2 5 -1 -4 1 8 -7
Height
5675 5668 5661 5653 5646 5640 5636 5633 5633 5633 5632 5634 5636 5641 5643 5645 5648 5648 5651 5653 5655 5655 5657 5658 5659 5660 5662
5667 5661 5655 5647 5640 5634 5631 5632 5631 5631 5632 5634 5634 5634 5636 5637 5639 5638 5639 5639 5642 5642 5644 5645 5646 5647 5646
5660 5655 5649 5643 5637 5633 5631 5629 5627 5626 5626 5626 5626 5625 5626 5625 5627 5628 5628 5630 5630 5630 5631 5631 5632 5633 5633
5653 5649 5644 5639 5635 5632 5628 5625 5624 5622 5620 5619 5619 5618 5618 5618 5619 5618 5619 5618 5618 5619 5619 5620 5619 5618 5618
5646 5643 5639 5635 5631 5628 5625 5622 5619 5617 5615 5613 5611 5611 5609 5610 5609 5607 5606 5605 5606 5606 5607 5605 5602 5601 5602
5639 5635 5631 5628 5625 5621 5618 5615 5612 5609 5607 5604 5602 5601 5600 5599 5597 5595 5593 5593 5591 5589 5588 5586 5584 5584 5583
5630 5626 5623 5619 5616 5613 5609 5606 5603 5600 5597 5593 5591 5590 5587 5585 5582 5579 5577 5576 5573 5571 5569 5566 5563 5559 5557
5621 5617 5613 5610 5606 5603 5599 5595 5592 5589 5585 5582 5578 5575 5571 5568 5565 5563 5560 5557 5553 5550 5547 5542 5540 5538 5536
5611 5607 5603 5599 5595 5591 5588 5584 5580 5576 5573 5569 5565 5560 5556 5552 5548 5543 5539 5536 5532 5529 5525 5523 5522 5521 5519
5602 5597 5593 5589 5584 5580 5576 5572 5568 5564 5559 5555 5551 5547 5542 5537 5532 5526 5522 5518 5515 5512 5509 5507 5506 5506 5504
5591 5587 5582 5577 5573 5568 5563 5559 5554 5551 5547 5541 5535 5531 5526 5521 5514 5508 5504 5500 5497 5495 5494 5493 5492 5492 5490
5580 5575 5570 5565 5560 5555 5550 5545 5540 5535 5530 5525 5519 5513 5508 5502 5495 5486 5484 5481 5479 5478 5478 5479 5479 5478 5477
5568 5563 5558 5553 5547 5542 5536 5531 5525 5519 5514 5508 5502 5496 5489 5481 5477 5468 5465 5460 5460 5461 5462 5463 5464 5464 5463
5556 5551 5545 5538 5533 5527 5522 5516 5509 5502 5497 5490 5484 5477 5469 5463 5458 5451 5445 5446 5442 5442 5444 5446 5447 5448 5448
5543 5537 5531 5524 5518 5513 5507 5500 5493 5485 5477 5472 5468 5460 5453 5446 5441 5434 5429 5427 5425 5425 5426 5430 5431 5431 5432
5530 5524 5517 5511 5504 5497 5491 5485 5478 5470 5461 5453 5447 5444 5439 5431 5424 5418 5413 5410 5406 5408 5409 5413 5417 5415 5417
5517 5510 5503 5496 5489 5482 5476 5469 5463 5455 5445 5437 5432 5428 5424 5417 5409 5400 5396 5390 5389 5391 5392 5395 5401 5401 5402